Station Historical Data
Daily Summary for August 4, 2017 Units:  English    Metric   Both
Next Day »
Daily Weekly Monthly Yearly Custom
  High: Low: Average:
Temperature: 89.7 °F 73.5 °F 79.9 °F
Dew Point: 60.5 °F 50.0 °F 54.6 °F
Humidity: 52% 26% 42%
Wind Speed: 13.0mph 0.0mph 2.3mph
Wind Gust: 19.0mph - -
Wind- - SE
Pressure: 29.91 in 29.84 in -
Precipitation: 0.00 in    
Historical Graphs
 
 
Tabular Data for August 4, 2017
Time Temperature Dew Point Pressure Wind Wind Speed Wind Gust Humidity Rainfall Rate (Hourly) solar Conditions
00:04 77.5 °F 50.6 °F 29.90 in ESE 13.0 mph 14.0 mph 39% 0.00 in 0.00 W/m2
00:09 77.5 °F 51.3 °F 29.90 in ESE 2.0 mph 12.0 mph 40% 0.00 in 0.00 W/m2
00:14 77.5 °F 52.0 °F 29.90 in Calm   13.0 mph 41% 0.00 in 0.00 W/m2
00:19 77.5 °F 52.0 °F 29.89 in Calm   14.0 mph 41% 0.00 in 0.00 W/m2
00:24 77.5 °F 52.0 °F 29.90 in East 8.0 mph 12.0 mph 41% 0.00 in 0.00 W/m2
00:29 77.5 °F 52.0 °F 29.90 in ESE 6.0 mph 12.0 mph 41% 0.00 in 0.00 W/m2
00:34 77.5 °F 52.0 °F 29.90 in ESE 1.0 mph 12.0 mph 41% 0.00 in 0.00 W/m2
00:39 77.5 °F 52.6 °F 29.90 in East 9.0 mph 12.0 mph 42% 0.00 in 0.00 W/m2
00:44 77.5 °F 52.6 °F 29.90 in Calm   12.0 mph 42% 0.00 in 0.00 W/m2
00:49 77.4 °F 52.5 °F 29.90 in East 8.0 mph 13.0 mph 42% 0.00 in 0.00 W/m2
00:54 77.3 °F 52.5 °F 29.90 in ESE 4.0 mph 11.0 mph 42% 0.00 in 0.00 W/m2
00:59 77.2 °F 52.4 °F 29.89 in ESE 1.0 mph 13.0 mph 42% 0.00 in 0.00 W/m2
01:04 77.1 °F 52.3 °F 29.90 in ESE 4.0 mph 13.0 mph 42% 0.00 in 0.00 W/m2
01:09 77.1 °F 52.3 °F 29.90 in ESE 9.0 mph 12.0 mph 42% 0.00 in 0.00 W/m2
01:14 77.0 °F 52.2 °F 29.90 in ESE 2.0 mph 14.0 mph 42% 0.00 in 0.00 W/m2
01:19 76.9 °F 52.1 °F 29.89 in ESE 4.0 mph 16.0 mph 42% 0.00 in 0.00 W/m2
01:24 76.9 °F 52.1 °F 29.89 in ESE 5.0 mph 13.0 mph 42% 0.00 in 0.00 W/m2
01:29 76.9 °F 52.1 °F 29.89 in ESE 5.0 mph 13.0 mph 42% 0.00 in 0.00 W/m2
01:30 76.9 °F 52.1 °F 29.89 in ESE 5.0 mph 14.0 mph 42% 0.00 in 0.00 W/m2
01:35 76.8 °F 52.0 °F 29.89 in ESE 7.0 mph 15.0 mph 42% 0.00 in 0.00 W/m2
01:40 76.8 °F 52.0 °F 29.89 in ESE 7.0 mph 11.0 mph 42% 0.00 in 0.00 W/m2
01:45 76.8 °F 52.0 °F 29.89 in ESE 8.0 mph 14.0 mph 42% 0.00 in 0.00 W/m2
01:50 76.8 °F 52.0 °F 29.89 in ESE 8.0 mph 15.0 mph 42% 0.00 in 0.00 W/m2
01:55 76.7 °F 51.9 °F 29.90 in ESE 6.0 mph 12.0 mph 42% 0.00 in 0.00 W/m2
02:00 76.7 °F 51.9 °F 29.89 in ESE 11.0 mph 14.0 mph 42% 0.00 in 0.00 W/m2
02:05 76.7 °F 51.9 °F 29.90 in East 6.0 mph 15.0 mph 42% 0.00 in 0.00 W/m2
02:10 76.7 °F 51.9 °F 29.89 in ESE 7.0 mph 19.0 mph 42% 0.00 in 0.00 W/m2
02:15 76.7 °F 51.9 °F 29.89 in ESE 9.0 mph 16.0 mph 42% 0.00 in 0.00 W/m2
02:20 76.7 °F 51.9 °F 29.89 in East 11.0 mph 14.0 mph 42% 0.00 in 0.00 W/m2
02:25 76.7 °F 51.9 °F 29.89 in ESE 8.0 mph 15.0 mph 42% 0.00 in 0.00 W/m2
02:26 76.7 °F 51.9 °F 29.89 in ESE 2.0 mph 4.0 mph 42% 0.00 in 0.00 W/m2
02:31 76.7 °F 51.9 °F 29.89 in ESE 2.0 mph 2.0 mph 42% 0.00 in 0.00 W/m2
02:36 76.7 °F 51.9 °F 29.89 in SE 11.0 mph 11.0 mph 42% 0.00 in 0.00 W/m2
02:41 76.7 °F 51.9 °F 29.89 in SE 8.0 mph 9.0 mph 42% 0.00 in 0.00 W/m2
02:46 76.7 °F 51.9 °F 29.89 in Calm   5.0 mph 42% 0.00 in 0.00 W/m2
02:51 76.7 °F 51.9 °F 29.89 in ESE 5.0 mph 12.0 mph 42% 0.00 in 0.00 W/m2
02:56 76.7 °F 51.9 °F 29.89 in SE 6.0 mph 8.0 mph 42% 0.00 in 0.00 W/m2
03:01 76.6 °F 51.8 °F 29.89 in ESE 7.0 mph 11.0 mph 42% 0.00 in 0.00 W/m2
03:06 76.6 °F 51.8 °F 29.89 in ESE 7.0 mph 14.0 mph 42% 0.00 in 0.00 W/m2
03:11 76.5 °F 51.1 °F 29.89 in Calm   9.0 mph 41% 0.00 in 0.00 W/m2
03:16 76.4 °F 51.0 °F 29.89 in ESE 7.0 mph 7.0 mph 41% 0.00 in 0.00 W/m2
03:21 76.4 °F 51.6 °F 29.89 in SE 6.0 mph 6.0 mph 42% 0.00 in 0.00 W/m2
03:26 76.3 °F 50.9 °F 29.88 in ESE 4.0 mph 9.0 mph 41% 0.00 in 0.00 W/m2
03:31 76.2 °F 51.5 °F 29.88 in ESE 6.0 mph 11.0 mph 42% 0.00 in 0.00 W/m2
03:36 76.2 °F 51.5 °F 29.88 in ESE 6.0 mph 14.0 mph 42% 0.00 in 0.00 W/m2
03:41 76.1 °F 51.4 °F 29.88 in East 1.0 mph 14.0 mph 42% 0.00 in 0.00 W/m2
03:46 76.1 °F 51.4 °F 29.88 in ESE 12.0 mph 12.0 mph 42% 0.00 in 0.00 W/m2
03:51 76.0 °F 51.3 °F 29.88 in ESE 6.0 mph 7.0 mph 42% 0.00 in 0.00 W/m2
03:56 76.0 °F 51.3 °F 29.88 in Calm   4.0 mph 42% 0.00 in 0.00 W/m2
04:01 76.0 °F 51.3 °F 29.88 in ESE 1.0 mph 8.0 mph 42% 0.00 in 0.00 W/m2
04:06 76.0 °F 51.3 °F 29.88 in East 7.0 mph 8.0 mph 42% 0.00 in 0.00 W/m2
04:11 76.0 °F 51.3 °F 29.88 in ESE 4.0 mph 5.0 mph 42% 0.00 in 0.00 W/m2
04:16 76.0 °F 51.3 °F 29.88 in ESE 6.0 mph 11.0 mph 42% 0.00 in 0.00 W/m2
04:21 76.0 °F 51.3 °F 29.88 in ESE 4.0 mph 9.0 mph 42% 0.00 in 0.00 W/m2
04:26 76.0 °F 51.3 °F 29.88 in East 6.0 mph 6.0 mph 42% 0.00 in 0.00 W/m2
04:31 76.0 °F 51.3 °F 29.88 in ESE 1.0 mph 1.0 mph 42% 0.00 in 0.00 W/m2
04:36 76.0 °F 50.6 °F 29.88 in Calm   1.0 mph 41% 0.00 in 0.00 W/m2
04:41 76.0 °F 51.3 °F 29.88 in Calm     42% 0.00 in 0.00 W/m2
04:46 76.1 °F 51.4 °F 29.88 in Calm     42% 0.00 in 0.00 W/m2
04:51 76.0 °F 51.3 °F 29.88 in Calm   4.0 mph 42% 0.00 in 0.00 W/m2
04:56 76.0 °F 51.3 °F 29.88 in Calm     42% 0.00 in 0.00 W/m2
05:01 75.9 °F 51.8 °F 29.89 in Calm   4.0 mph 43% 0.00 in 0.00 W/m2
05:06 75.8 °F 51.7 °F 29.89 in Calm   6.0 mph 43% 0.00 in 0.00 W/m2
05:11 75.7 °F 51.6 °F 29.89 in Calm   5.0 mph 43% 0.00 in 0.00 W/m2
05:16 75.6 °F 51.5 °F 29.89 in Calm   2.0 mph 43% 0.00 in 0.00 W/m2
05:21 75.5 °F 51.5 °F 29.89 in ESE 1.0 mph 5.0 mph 43% 0.00 in 0.00 W/m2
05:26 75.3 °F 51.3 °F 29.89 in ESE 2.0 mph 7.0 mph 43% 0.00 in 0.00 W/m2
05:32 75.2 °F 51.2 °F 29.89 in Calm   7.0 mph 43% 0.00 in 0.00 W/m2
05:37 75.1 °F 51.7 °F 29.89 in ESE 4.0 mph 11.0 mph 44% 0.00 in 0.00 W/m2
05:42 74.9 °F 51.5 °F 29.89 in ESE 7.0 mph 7.0 mph 44% 0.00 in 0.00 W/m2
05:47 74.8 °F 51.5 °F 29.89 in Calm   7.0 mph 44% 0.00 in 0.00 W/m2
05:52 74.6 °F 51.9 °F 29.89 in ESE 1.0 mph 7.0 mph 45% 0.00 in 0.00 W/m2
05:57 74.5 °F 51.8 °F 29.89 in ESE 7.0 mph 9.0 mph 45% 0.00 in 0.00 W/m2
06:02 74.3 °F 51.6 °F 29.89 in ESE 2.0 mph 6.0 mph 45% 0.00 in 0.00 W/m2
06:07 74.2 °F 51.5 °F 29.89 in Calm   6.0 mph 45% 0.00 in 0.00 W/m2
06:12 74.0 °F 51.3 °F 29.89 in ESE 5.0 mph 8.0 mph 45% 0.00 in 5.00 W/m2
06:17 73.9 °F 51.2 °F 29.89 in ESE 5.0 mph 7.0 mph 45% 0.00 in 9.00 W/m2
06:22 73.8 °F 51.8 °F 29.89 in Calm   4.0 mph 46% 0.00 in 16.00 W/m2
06:27 73.7 °F 51.7 °F 29.89 in ESE 1.0 mph 7.0 mph 46% 0.00 in 23.00 W/m2
06:32 73.7 °F 51.7 °F 29.89 in ESE 2.0 mph 11.0 mph 46% 0.00 in 33.00 W/m2
06:37 73.6 °F 51.6 °F 29.89 in East 4.0 mph 6.0 mph 46% 0.00 in 44.00 W/m2
06:42 73.5 °F 51.5 °F 29.89 in East 5.0 mph 8.0 mph 46% 0.00 in 53.00 W/m2
06:47 73.5 °F 51.5 °F 29.89 in ESE 5.0 mph 8.0 mph 46% 0.00 in 62.00 W/m2
06:52 73.5 °F 51.5 °F 29.89 in Calm   6.0 mph 46% 0.00 in 72.00 W/m2
06:57 73.5 °F 52.1 °F 29.89 in ESE 6.0 mph 9.0 mph 47% 0.00 in 83.00 W/m2
07:02 73.6 °F 52.2 °F 29.89 in Calm   8.0 mph 47% 0.00 in 102.00 W/m2
07:07 73.6 °F 52.2 °F 29.89 in East 1.0 mph 9.0 mph 47% 0.00 in 113.00 W/m2
07:12 73.7 °F 52.2 °F 29.89 in East 7.0 mph 9.0 mph 47% 0.00 in 116.00 W/m2
07:17 73.8 °F 52.3 °F 29.90 in East 4.0 mph 5.0 mph 47% 0.00 in 120.00 W/m2
07:22 73.9 °F 53.0 °F 29.90 in Calm   4.0 mph 48% 0.00 in 128.00 W/m2
07:27 73.9 °F 53.0 °F 29.90 in East 6.0 mph 8.0 mph 48% 0.00 in 128.00 W/m2
07:32 74.0 °F 53.1 °F 29.90 in ESE 8.0 mph 8.0 mph 48% 0.00 in 111.00 W/m2
07:37 74.0 °F 53.1 °F 29.89 in ESE 1.0 mph 8.0 mph 48% 0.00 in 125.00 W/m2
07:42 74.0 °F 53.1 °F 29.89 in ESE 5.0 mph 8.0 mph 48% 0.00 in 114.00 W/m2
07:47 74.0 °F 53.7 °F 29.89 in Calm   8.0 mph 49% 0.00 in 171.00 W/m2
07:52 74.0 °F 53.7 °F 29.89 in Calm   7.0 mph 49% 0.00 in 216.00 W/m2
07:57 74.0 °F 53.7 °F 29.89 in ESE 5.0 mph 9.0 mph 49% 0.00 in 234.00 W/m2
08:02 74.0 °F 53.7 °F 29.89 in ESE 1.0 mph 12.0 mph 49% 0.00 in 274.00 W/m2
08:07 74.0 °F 54.2 °F 29.90 in ESE 1.0 mph 8.0 mph 50% 0.00 in 297.00 W/m2
08:12 74.1 °F 54.3 °F 29.90 in Calm   8.0 mph 50% 0.00 in 318.00 W/m2
08:17 74.2 °F 54.4 °F 29.90 in ESE 4.0 mph 7.0 mph 50% 0.00 in 302.00 W/m2
08:22 74.3 °F 55.0 °F 29.90 in Calm   8.0 mph 51% 0.00 in 350.00 W/m2
08:27 74.4 °F 55.1 °F 29.89 in Calm   8.0 mph 51% 0.00 in 366.00 W/m2
08:32 74.6 °F 55.3 °F 29.90 in Calm   7.0 mph 51% 0.00 in 404.00 W/m2
08:37 74.7 °F 55.4 °F 29.90 in ESE 1.0 mph 4.0 mph 51% 0.00 in 359.00 W/m2
08:42 74.9 °F 56.1 °F 29.90 in Calm   5.0 mph 52% 0.00 in 436.00 W/m2
08:47 75.1 °F 56.3 °F 29.90 in ESE 2.0 mph 6.0 mph 52% 0.00 in 455.00 W/m2
08:52 75.3 °F 56.5 °F 29.90 in Calm   5.0 mph 52% 0.00 in 471.00 W/m2
08:57 75.6 °F 56.8 °F 29.89 in ESE 1.0 mph 1.0 mph 52% 0.00 in 494.00 W/m2
09:02 75.8 °F 56.9 °F 29.89 in ESE 1.0 mph 8.0 mph 52% 0.00 in 522.00 W/m2
09:08 76.2 °F 56.2 °F 29.89 in Calm   8.0 mph 50% 0.00 in 385.00 W/m2
09:13 76.5 °F 57.0 °F 29.89 in Calm   1.0 mph 51% 0.00 in 376.00 W/m2
09:17 76.9 °F 57.4 °F 29.89 in Calm   6.0 mph 51% 0.00 in 508.00 W/m2
09:22 77.2 °F 57.7 °F 29.89 in ESE 4.0 mph 6.0 mph 51% 0.00 in 483.00 W/m2
09:27 77.4 °F 57.9 °F 29.90 in Calm   4.0 mph 51% 0.00 in 548.00 W/m2
09:33 77.7 °F 57.0 °F 29.89 in Calm   6.0 mph 49% 0.00 in 587.00 W/m2
09:38 77.9 °F 57.8 °F 29.90 in ESE 2.0 mph 5.0 mph 50% 0.00 in 594.00 W/m2
09:43 78.2 °F 55.8 °F 29.90 in Calm   2.0 mph 46% 0.00 in 624.00 W/m2
09:48 78.5 °F 56.6 °F 29.90 in Calm     47% 0.00 in 497.00 W/m2
09:53 78.8 °F 58.0 °F 29.90 in ESE 2.0 mph 2.0 mph 49% 0.00 in 656.00 W/m2
09:58 79.1 °F 57.8 °F 29.90 in Calm   6.0 mph 48% 0.00 in 659.00 W/m2
10:03 79.5 °F 56.3 °F 29.90 in Calm   4.0 mph 45% 0.00 in 654.00 W/m2
10:08 79.8 °F 56.0 °F 29.90 in SE 2.0 mph 6.0 mph 44% 0.00 in 650.00 W/m2
10:13 80.2 °F 55.7 °F 29.90 in SSE 1.0 mph 5.0 mph 43% 0.00 in 638.00 W/m2
10:18 80.5 °F 54.7 °F 29.90 in Calm   4.0 mph 41% 0.00 in 663.00 W/m2
10:23 80.8 °F 53.6 °F 29.90 in SSE 2.0 mph 5.0 mph 39% 0.00 in 671.00 W/m2
10:28 81.1 °F 55.2 °F 29.90 in Calm   2.0 mph 41% 0.00 in 682.00 W/m2
10:33 81.4 °F 54.8 °F 29.90 in Calm     40% 0.00 in 691.00 W/m2
10:38 81.7 °F 55.0 °F 29.90 in Calm     40% 0.00 in 698.00 W/m2
10:43 82.0 °F 56.7 °F 29.91 in Calm     42% 0.00 in 708.00 W/m2
10:48 82.3 °F 58.2 °F 29.90 in SSE 1.0 mph 1.0 mph 44% 0.00 in 715.00 W/m2
10:53 82.5 °F 55.8 °F 29.90 in Calm   2.0 mph 40% 0.00 in 724.00 W/m2
10:58 82.8 °F 54.6 °F 29.90 in Calm   1.0 mph 38% 0.00 in 742.00 W/m2
11:03 83.1 °F 56.3 °F 29.90 in SSE 1.0 mph 4.0 mph 40% 0.00 in 754.00 W/m2
11:08 83.2 °F 56.4 °F 29.90 in Calm   2.0 mph 40% 0.00 in 768.00 W/m2
11:13 83.5 °F 55.2 °F 29.90 in SSE 4.0 mph 6.0 mph 38% 0.00 in 777.00 W/m2
11:18 83.8 °F 54.8 °F 29.90 in Calm   5.0 mph 37% 0.00 in 784.00 W/m2
11:23 84.1 °F 54.3 °F 29.90 in Calm   4.0 mph 36% 0.00 in 795.00 W/m2
11:28 84.3 °F 54.5 °F 29.90 in Calm   4.0 mph 36% 0.00 in 803.00 W/m2
11:33 84.6 °F 53.2 °F 29.90 in Calm   3.0 mph 34% 0.00 in 837.00 W/m2
11:38 84.9 °F 53.4 °F 29.90 in Calm   2.0 mph 34% 0.00 in 877.00 W/m2
11:43 85.3 °F 53.8 °F 29.90 in Calm   4.0 mph 34% 0.00 in 909.00 W/m2
11:48 85.8 °F 54.2 °F 29.90 in Calm   4.0 mph 34% 0.00 in 649.00 W/m2
11:53 86.2 °F 55.4 °F 29.90 in Calm   3.0 mph 35% 0.00 in 810.00 W/m2
11:58 86.5 °F 54.0 °F 29.90 in WSW 3.0 mph 4.0 mph 33% 0.00 in 761.00 W/m2
12:03 86.6 °F 52.4 °F 29.90 in SSW 3.0 mph 7.0 mph 31% 0.00 in 793.00 W/m2
12:08 86.8 °F 53.4 °F 29.90 in Calm   6.0 mph 32% 0.00 in 780.00 W/m2
12:13 87.0 °F 52.7 °F 29.90 in West 1.0 mph 4.0 mph 31% 0.00 in 842.00 W/m2
12:18 87.0 °F 52.7 °F 29.90 in West 1.0 mph 5.0 mph 31% 0.00 in 663.00 W/m2
12:23 86.7 °F 52.5 °F 29.90 in Calm     31% 0.00 in 552.00 W/m2
12:28 86.6 °F 52.4 °F 29.90 in Calm   6.0 mph 31% 0.00 in 506.00 W/m2
12:33 86.5 °F 53.2 °F 29.90 in Calm   6.0 mph 32% 0.00 in 475.00 W/m2
12:38 86.5 °F 54.0 °F 29.90 in WSW 1.0 mph 4.0 mph 33% 0.00 in 543.00 W/m2
12:43 86.3 °F 53.8 °F 29.90 in Calm   6.0 mph 33% 0.00 in 517.00 W/m2
12:48 86.3 °F 54.7 °F 29.90 in Calm   7.0 mph 34% 0.00 in 411.00 W/m2
12:54 86.3 °F 52.1 °F 29.90 in WSW 1.0 mph 4.0 mph 31% 0.00 in 431.00 W/m2
12:59 86.3 °F 53.8 °F 29.90 in Calm   1.0 mph 33% 0.00 in 436.00 W/m2
13:04 86.4 °F 56.3 °F 29.89 in Calm   2.0 mph 36% 0.00 in 619.00 W/m2
13:09 86.3 °F 56.2 °F 29.89 in Calm   3.0 mph 36% 0.00 in 415.00 W/m2
13:14 86.2 °F 56.9 °F 29.89 in WSW 4.0 mph 4.0 mph 37% 0.00 in 1072.00 W/m2
13:19 86.3 °F 54.7 °F 29.89 in Calm   1.0 mph 34% 0.00 in 1074.00 W/m2
13:24 86.7 °F 55.0 °F 29.89 in West 1.0 mph 5.0 mph 34% 0.00 in 538.00 W/m2
13:29 87.1 °F 52.8 °F 29.89 in Calm   5.0 mph 31% 0.00 in 538.00 W/m2
13:34 87.3 °F 52.1 °F 29.89 in West 3.0 mph 7.0 mph 30% 0.00 in 937.00 W/m2
13:39 87.6 °F 53.3 °F 29.88 in West 2.0 mph 3.0 mph 31% 0.00 in 935.00 W/m2
13:44 88.1 °F 54.6 °F 29.88 in Calm   1.0 mph 32% 0.00 in 898.00 W/m2
13:49 88.7 °F 55.1 °F 29.88 in Calm   6.0 mph 32% 0.00 in 564.00 W/m2
13:54 88.9 °F 52.6 °F 29.88 in WSW 6.0 mph 10.0 mph 29% 0.00 in 900.00 W/m2
13:59 89.3 °F 50.0 °F 29.88 in WSW 4.0 mph 9.0 mph 26% 0.00 in 895.00 W/m2
14:04 89.6 °F 52.2 °F 29.88 in Calm   7.0 mph 28% 0.00 in 809.00 W/m2
14:09 89.6 °F 51.2 °F 29.88 in WSW 4.0 mph 4.0 mph 27% 0.00 in 882.00 W/m2
14:14 89.7 °F 50.3 °F 29.88 in West 3.0 mph 9.0 mph 26% 0.00 in 953.00 W/m2
14:19 89.7 °F 51.3 °F 29.88 in SW 8.0 mph 10.0 mph 27% 0.00 in 406.00 W/m2
14:24 89.6 °F 53.2 °F 29.88 in Calm   10.0 mph 29% 0.00 in 399.00 W/m2
14:29 89.1 °F 53.7 °F 29.88 in Calm   9.0 mph 30% 0.00 in 875.00 W/m2
14:34 88.9 °F 52.6 °F 29.88 in SW 9.0 mph 9.0 mph 29% 0.00 in 856.00 W/m2
14:39 88.8 °F 52.5 °F 29.88 in Calm   7.0 mph 29% 0.00 in 816.00 W/m2
14:44 88.8 °F 51.5 °F 29.88 in Calm   4.0 mph 28% 0.00 in 831.00 W/m2
14:49 89.1 °F 51.8 °F 29.88 in Calm   12.0 mph 28% 0.00 in 749.00 W/m2
14:54 89.3 °F 52.0 °F 29.87 in SW 4.0 mph 9.0 mph 28% 0.00 in 765.00 W/m2
14:59 89.5 °F 51.1 °F 29.88 in Calm   8.0 mph 27% 0.00 in 749.00 W/m2
15:04 89.6 °F 53.2 °F 29.87 in WSW 9.0 mph 10.0 mph 29% 0.00 in 796.00 W/m2
15:09 89.5 °F 51.1 °F 29.88 in West 7.0 mph 9.0 mph 27% 0.00 in 791.00 W/m2
15:14 89.1 °F 51.8 °F 29.87 in WNW 3.0 mph 7.0 mph 28% 0.00 in 800.00 W/m2
15:19 88.8 °F 51.5 °F 29.87 in NNW 11.0 mph 15.0 mph 28% 0.00 in 763.00 W/m2
15:24 88.5 °F 53.1 °F 29.87 in West 2.0 mph 8.0 mph 30% 0.00 in 775.00 W/m2
15:29 88.5 °F 53.1 °F 29.87 in Calm   8.0 mph 30% 0.00 in 675.00 W/m2
15:34 88.5 °F 53.1 °F 29.87 in West 2.0 mph 8.0 mph 30% 0.00 in 668.00 W/m2
15:39 88.5 °F 54.0 °F 29.87 in West 1.0 mph 9.0 mph 31% 0.00 in 751.00 W/m2
15:44 88.6 °F 54.1 °F 29.87 in West 2.0 mph 8.0 mph 31% 0.00 in 510.00 W/m2
15:49 88.4 °F 54.0 °F 29.87 in Calm   5.0 mph 31% 0.00 in 703.00 W/m2
15:54 88.2 °F 53.8 °F 29.86 in WSW 2.0 mph 7.0 mph 31% 0.00 in 700.00 W/m2
15:59 88.1 °F 53.7 °F 29.86 in West 5.0 mph 10.0 mph 31% 0.00 in 657.00 W/m2
16:04 88.1 °F 53.7 °F 29.86 in Calm   4.0 mph 31% 0.00 in 253.00 W/m2
16:10 87.9 °F 54.4 °F 29.86 in West 5.0 mph 7.0 mph 32% 0.00 in 234.00 W/m2
16:14 87.6 °F 54.1 °F 29.86 in WNW 6.0 mph 6.0 mph 32% 0.00 in 243.00 W/m2
16:20 87.2 °F 53.8 °F 29.86 in Calm   5.0 mph 32% 0.00 in 285.00 W/m2
16:25 86.8 °F 55.1 °F 29.86 in Calm   8.0 mph 34% 0.00 in 454.00 W/m2
16:30 86.5 °F 54.0 °F 29.87 in West 7.0 mph 8.0 mph 33% 0.00 in 257.00 W/m2
16:35 86.3 °F 53.0 °F 29.87 in Calm   7.0 mph 32% 0.00 in 461.00 W/m2
16:40 86.1 °F 55.3 °F 29.87 in Calm   5.0 mph 35% 0.00 in 418.00 W/m2
16:45 86.0 °F 54.4 °F 29.87 in West 3.0 mph 4.0 mph 34% 0.00 in 596.00 W/m2
16:50 85.9 °F 55.1 °F 29.87 in Calm   8.0 mph 35% 0.00 in 431.00 W/m2
16:55 85.9 °F 55.1 °F 29.86 in Calm   8.0 mph 35% 0.00 in 427.00 W/m2
17:00 85.9 °F 55.1 °F 29.87 in Calm   7.0 mph 35% 0.00 in 246.00 W/m2
17:05 85.9 °F 54.3 °F 29.86 in WSW 2.0 mph 7.0 mph 34% 0.00 in 234.00 W/m2
17:10 85.9 °F 55.9 °F 29.86 in Calm   3.0 mph 36% 0.00 in 232.00 W/m2
17:15 85.7 °F 56.5 °F 29.86 in Calm   3.0 mph 37% 0.00 in 214.00 W/m2
17:20 85.5 °F 56.3 °F 29.86 in Calm   2.0 mph 37% 0.00 in 204.00 W/m2
17:25 85.3 °F 56.8 °F 29.86 in Calm   1.0 mph 38% 0.00 in 193.00 W/m2
17:30 85.2 °F 57.5 °F 29.86 in Calm   2.0 mph 39% 0.00 in 185.00 W/m2
17:35 85.0 °F 57.3 °F 29.86 in Calm     39% 0.00 in 178.00 W/m2
17:40 84.9 °F 57.9 °F 29.86 in Calm   1.0 mph 40% 0.00 in 171.00 W/m2
17:45 84.7 °F 57.7 °F 29.86 in Calm   4.0 mph 40% 0.00 in 162.00 W/m2
17:50 84.6 °F 59.7 °F 29.86 in Calm   1.0 mph 43% 0.00 in 155.00 W/m2
17:55 84.3 °F 58.7 °F 29.86 in Calm     42% 0.00 in 142.00 W/m2
18:00 84.1 °F 60.5 °F 29.85 in Calm   2.0 mph 45% 0.00 in 127.00 W/m2
18:05 83.8 °F 58.9 °F 29.85 in Calm   1.0 mph 43% 0.00 in 114.00 W/m2
18:10 83.6 °F 59.4 °F 29.85 in Calm     44% 0.00 in 109.00 W/m2
18:15 83.4 °F 59.8 °F 29.85 in Calm   4.0 mph 45% 0.00 in 107.00 W/m2
18:20 83.2 °F 59.7 °F 29.85 in Calm   5.0 mph 45% 0.00 in 107.00 W/m2
18:25 83.0 °F 59.5 °F 29.85 in Calm   5.0 mph 45% 0.00 in 105.00 W/m2
18:30 82.8 °F 59.3 °F 29.85 in Calm   4.0 mph 45% 0.00 in 100.00 W/m2
18:35 82.7 °F 59.2 °F 29.85 in Calm   1.0 mph 45% 0.00 in 93.00 W/m2
18:40 82.6 °F 59.8 °F 29.85 in Calm     46% 0.00 in 88.00 W/m2
18:45 82.3 °F 59.5 °F 29.85 in Calm   1.0 mph 46% 0.00 in 77.00 W/m2
18:50 82.1 °F 58.7 °F 29.85 in Calm   1.0 mph 45% 0.00 in 65.00 W/m2
18:55 82.0 °F 59.2 °F 29.85 in Calm   1.0 mph 46% 0.00 in 54.00 W/m2
19:00 81.9 °F 59.7 °F 29.85 in Calm     47% 0.00 in 51.00 W/m2
19:05 81.7 °F 59.5 °F 29.85 in Calm     47% 0.00 in 49.00 W/m2
19:10 81.3 °F 59.2 °F 29.85 in Calm     47% 0.00 in 47.00 W/m2
19:15 81.0 °F 59.5 °F 29.85 in Calm   1.0 mph 48% 0.00 in 46.00 W/m2
19:20 80.6 °F 59.7 °F 29.85 in Calm     49% 0.00 in 42.00 W/m2
19:25 80.4 °F 59.5 °F 29.85 in Calm   1.0 mph 49% 0.00 in 39.00 W/m2
19:30 80.2 °F 59.3 °F 29.86 in Calm     49% 0.00 in 35.00 W/m2
19:35 79.9 °F 59.0 °F 29.86 in Calm     49% 0.00 in 33.00 W/m2
19:40 79.7 °F 59.4 °F 29.86 in Calm   1.0 mph 50% 0.00 in 28.00 W/m2
19:46 79.6 °F 59.3 °F 29.86 in Calm   1.0 mph 50% 0.00 in 23.00 W/m2
19:51 79.4 °F 59.2 °F 29.86 in Calm   1.0 mph 50% 0.00 in 19.00 W/m2
19:56 79.2 °F 59.5 °F 29.86 in Calm   1.0 mph 51% 0.00 in 16.00 W/m2
20:01 79.1 °F 58.9 °F 29.86 in Calm   1.0 mph 50% 0.00 in 11.00 W/m2
20:06 78.9 °F 59.2 °F 29.86 in Calm   1.0 mph 51% 0.00 in 7.00 W/m2
20:11 78.7 °F 59.1 °F 29.86 in Calm   1.0 mph 51% 0.00 in 0.00 W/m2
20:20 78.3 °F 58.7 °F 29.86 in South 5.0 mph 5.0 mph 51% 0.00 in 0.00 W/m2
20:21 78.3 °F 58.7 °F 29.86 in South 5.0 mph 5.0 mph 51% 0.00 in 0.00 W/m2
20:22 78.2 °F 58.6 °F 29.86 in South 4.0 mph 5.0 mph 51% 0.00 in 0.00 W/m2
20:26 78.1 °F 58.5 °F 29.86 in Calm     51% 0.00 in 0.00 W/m2
20:27 78.0 °F 58.4 °F 29.86 in Calm   1.0 mph 51% 0.00 in 0.00 W/m2
20:32 77.8 °F 58.2 °F 29.86 in Calm     51% 0.00 in 0.00 W/m2
20:37 77.6 °F 58.1 °F 29.86 in Calm   1.0 mph 51% 0.00 in 0.00 W/m2
20:42 77.5 °F 58.0 °F 29.86 in Calm   5.0 mph 51% 0.00 in 0.00 W/m2
20:47 77.4 °F 57.9 °F 29.87 in Calm   6.0 mph 51% 0.00 in 0.00 W/m2
20:52 77.3 °F 57.8 °F 29.87 in Calm   5.0 mph 51% 0.00 in 0.00 W/m2
20:57 77.2 °F 57.1 °F 29.87 in Calm   5.0 mph 50% 0.00 in 0.00 W/m2
21:02 77.2 °F 57.7 °F 29.87 in Calm     51% 0.00 in 0.00 W/m2
21:07 77.0 °F 57.0 °F 29.87 in Calm   5.0 mph 50% 0.00 in 0.00 W/m2
21:13 77.0 °F 57.0 °F 29.87 in SSE 4.0 mph 5.0 mph 50% 0.00 in 0.00 W/m2
21:18 76.9 °F 57.4 °F 29.87 in SE 2.0 mph 7.0 mph 51% 0.00 in 0.00 W/m2
21:23 76.9 °F 57.4 °F 29.87 in SE 5.0 mph 7.0 mph 51% 0.00 in 0.00 W/m2
21:28 76.8 °F 57.3 °F 29.87 in Calm   7.0 mph 51% 0.00 in 0.00 W/m2
21:33 76.8 °F 57.3 °F 29.87 in SE 4.0 mph 7.0 mph 51% 0.00 in 0.00 W/m2
21:37 76.7 °F 57.2 °F 29.87 in Calm   7.0 mph 51% 0.00 in 0.00 W/m2
21:43 76.7 °F 57.2 °F 29.87 in SE 4.0 mph 6.0 mph 51% 0.00 in 0.00 W/m2
21:48 76.7 °F 57.2 °F 29.87 in Calm   7.0 mph 51% 0.00 in 0.00 W/m2
21:53 76.7 °F 57.2 °F 29.87 in SE 2.0 mph 4.0 mph 51% 0.00 in 0.00 W/m2
21:58 76.6 °F 57.7 °F 29.86 in ESE 7.0 mph 7.0 mph 52% 0.00 in 0.00 W/m2
22:03 76.6 °F 57.7 °F 29.87 in ESE 1.0 mph 6.0 mph 52% 0.00 in 0.00 W/m2
22:08 76.5 °F 57.6 °F 29.86 in ESE 5.0 mph 5.0 mph 52% 0.00 in 0.00 W/m2
22:13 76.5 °F 57.6 °F 29.86 in ESE 2.0 mph 9.0 mph 52% 0.00 in 0.00 W/m2
22:18 76.4 °F 57.5 °F 29.86 in Calm   9.0 mph 52% 0.00 in 0.00 W/m2
22:23 76.3 °F 57.4 °F 29.86 in ESE 2.0 mph 8.0 mph 52% 0.00 in 0.00 W/m2
22:28 76.3 °F 57.4 °F 29.86 in ESE 7.0 mph 8.0 mph 52% 0.00 in 0.00 W/m2
22:33 76.3 °F 57.4 °F 29.86 in ESE 8.0 mph 8.0 mph 52% 0.00 in 0.00 W/m2
22:38 76.3 °F 57.4 °F 29.86 in ESE 6.0 mph 12.0 mph 52% 0.00 in 0.00 W/m2
22:43 76.3 °F 57.4 °F 29.86 in ESE 4.0 mph 11.0 mph 52% 0.00 in 0.00 W/m2
22:48 76.3 °F 57.4 °F 29.86 in ESE 7.0 mph 8.0 mph 52% 0.00 in 0.00 W/m2
22:53 76.2 °F 57.3 °F 29.85 in ESE 4.0 mph 9.0 mph 52% 0.00 in 0.00 W/m2
22:58 76.2 °F 57.3 °F 29.85 in ESE 6.0 mph 11.0 mph 52% 0.00 in 0.00 W/m2
23:03 76.2 °F 56.8 °F 29.85 in Calm   9.0 mph 51% 0.00 in 0.00 W/m2
23:08 76.1 °F 56.7 °F 29.85 in ESE 1.0 mph 9.0 mph 51% 0.00 in 0.00 W/m2
23:13 76.1 °F 56.7 °F 29.85 in Calm   12.0 mph 51% 0.00 in 0.00 W/m2
23:18 76.0 °F 56.6 °F 29.85 in Calm   8.0 mph 51% 0.00 in 0.00 W/m2
23:23 76.0 °F 56.6 °F 29.85 in ESE 2.0 mph 8.0 mph 51% 0.00 in 0.00 W/m2
23:28 76.0 °F 56.6 °F 29.85 in Calm   6.0 mph 51% 0.00 in 0.00 W/m2
23:33 75.9 °F 56.5 °F 29.85 in ESE 1.0 mph 8.0 mph 51% 0.00 in 0.00 W/m2
23:38 75.9 °F 56.5 °F 29.85 in ESE 2.0 mph 12.0 mph 51% 0.00 in 0.00 W/m2
23:43 75.8 °F 56.4 °F 29.85 in Calm   8.0 mph 51% 0.00 in 0.00 W/m2
23:48 75.8 °F 56.4 °F 29.85 in ESE 9.0 mph 9.0 mph 51% 0.00 in 0.00 W/m2
23:53 75.8 °F 55.9 °F 29.85 in ESE 1.0 mph 9.0 mph 50% 0.00 in 0.00 W/m2
23:58 75.7 °F 55.8 °F 29.84 in ESE 2.0 mph 9.0 mph 50% 0.00 in 0.00 W/m2
Foresthill Weather
 WU-history PHP script courtesy of   Juneau County Weather.
powered by Cumulus v1.9.3 (1059)
Ambient Weather VWS v14.00
Top Contact Website Map Copyright © 2007 - 2018 Foresthillweather.com Never base important decisions on this or any weather information obtained from the Internet